Location: Dehesa de la Cepeda
(40.6574°N, 4.3013°W)
Time: 09:54:01
(UTC+00:00)

Transit 2A Rocket - Pass Details

Date: 09 August 2021
Orbit: 586 x 917 km, 66.7° (Epoch: 24 September)

Event Time Altitude Azimuth Distance (km) Brightness Sun altitude
Rises 21:55:29 0° 323° (NW) 3,354 9.7 -24.2°
Reaches altitude 10° 21:57:59 10° 317° (NW) 2,464 8.7 -24.5°
Maximum altitude 22:03:20 42° 248° (WSW) 1,235 6.1 -25.1°
Enters shadow 22:04:59 35° 211° (SSW) 1,409 6.1 -25.3°
Drops below altitude 10° 22:08:59 10° 179° (S) 2,583 - -25.8°
Sets 22:11:39 0° 173° (S) 3,533 - -26.1°
